Location: Allonne
(49.4086°N, 2.1143°E)
Time: 22:33:17
(UTC+00:00)

BlueWalker 3 - Visible Passes

Search period start: 30 May 2024 00:00
Search period end: 09 June 2024 00:00
Orbit: 481 x 494 km, 53.2° (Epoch: 30 May)

Date Brightness Start Highest point End Pass type
(mag) Time Alt. Az. Time Alt. Az. Time Alt. Az.
03 Jun 3.0 03:00:09 10° SSW 03:03:30 32° SE 03:06:51 10° ENE visible
04 Jun 3.1 02:35:05 12° SSW 02:38:03 30° SE 02:41:23 10° ENE visible
05 Jun 3.1 02:10:23 16° S 02:12:36 28° SE 02:15:52 10° E visible
06 Jun 3.1 01:45:37 20° S 01:47:09 27° SE 01:50:21 10° E visible
07 Jun 3.1 01:20:47 23° SSE 01:21:41 26° SE 01:24:49 10° E visible
07 Jun 1.9 02:55:49 10° WSW 02:59:34 80° NNW 03:03:20 10° ENE visible
08 Jun 3.1 00:55:54 24° SE 00:56:12 24° SE 00:59:17 10° E visible
08 Jun 1.9 02:30:19 10° WSW 02:34:03 83° NNW 02:37:49 10° ENE visible
